Notices

What's New in latest Release from April 7th, 2021:

- Updated Glossary, including Speed of Maximum Gust, and Total Hourly Precipitation

- Updated national and regional climate services offices contacts and prices information

- Addition of station inventory lists for 1981-2010, 1971-2000, and 1961-1990 Normals.

If you haven't already, please take our survey and provide feedback about our website: https://eccc.sondage-survey.ca/f/LanguageSelection.aspx?s=442ca660-fcf1-47c0-95a9-59707d6fd709

Hourly Data Report for October 02, 2003

TORONTO CITY
ONTARIO

43°40'00.000" N
79°24'00.000" W
112.50 m
6158355
71508
XTO

Download Data

Hourly Data (October 2003)
Hourly Data Report for October 2, 2003
TIME
LST
Temp Definition
°C
Dew Point Definition
°C
Rel Hum Definition
%
Precip. Amount Definition
mm

Wind Dir Definition
10's deg

Wind Spd Definition
km/h
Visibility Definition
km
Stn Press Definition
kPa
Hmdx Definition


Wind Chill Definition


Weather Definition


00:00 4.0 1.9 86   LegendMM LegendMM LegendMM 100.16     LegendNANA
01:00 3.7 1.5 86   LegendMM LegendMM LegendMM 100.13     LegendNANA
02:00 3.6 1.5 86   LegendMM LegendMM LegendMM 100.12     LegendNANA
03:00 3.5 1.4 86   LegendMM LegendMM LegendMM 100.10     LegendNANA
04:00 3.3 1.2 86   LegendMM LegendMM LegendMM 100.11     LegendNANA
05:00 3.0 1.1 87   LegendMM LegendMM LegendMM 100.11     LegendNANA
06:00 2.6 1.0 89   LegendMM LegendMM LegendMM 100.12     LegendNANA
07:00 4.2 1.4 82   LegendMM LegendMM LegendMM 100.12     LegendNANA
08:00 4.8 1.8 81   LegendMM LegendMM LegendMM 100.17     LegendNANA
09:00 5.6 2.3 79   LegendMM LegendMM LegendMM 100.24     LegendNANA
10:00 6.3 2.2 75   LegendMM LegendMM LegendMM 100.31     LegendNANA
11:00 6.6 2.6 76   LegendMM LegendMM LegendMM 100.39     LegendNANA
12:00 8.6 1.5 61   LegendMM LegendMM LegendMM 100.46     LegendNANA
13:00 9.4 0.1 52   LegendMM LegendMM LegendMM 100.46     LegendNANA
14:00 8.8 -1.4 49   LegendMM LegendMM LegendMM 100.48     LegendNANA
15:00 9.4 -2.8 42   LegendMM LegendMM LegendMM 100.50     LegendNANA
16:00 8.4 -0.1 55   LegendMM LegendMM LegendMM 100.56     LegendNANA
17:00 7.9 0.7 60   LegendMM LegendMM LegendMM 100.60     LegendNANA
18:00 7.1 0.5 63   LegendMM LegendMM LegendMM 100.65     LegendNANA
19:00 6.3 1.0 69   LegendMM LegendMM LegendMM 100.68     LegendNANA
20:00 5.7 1.1 72   LegendMM LegendMM LegendMM 100.68     LegendNANA
21:00 5.3 0.5 71   LegendMM LegendMM LegendMM 100.70     LegendNANA
22:00 4.4 0.1 74   LegendMM LegendMM LegendMM 100.68     LegendNANA
23:00 4.4 -0.1 73   LegendMM LegendMM LegendMM 100.66     LegendNANA

Notes on Data Quality.

Legend

  • E = Estimated
  • M = Missing
  • NA = Not Available*
  • [empty] = Indicates an unobserved value
Date modified: